Location: Arthurs Seat
(13.1500°N, 59.6000°W)
Time: 19:09:05
(UTC+00:00)

Cosmos 2369 Rocket - Pass Details

Date: 25 August 2019
Orbit: 830 x 851 km, 71.0° (Epoch: 17 October)

Event Time Altitude Azimuth Distance (km) Brightness Sun altitude
Rises 22:44:19 0° 335° (NNW) 3,382 5.9 -8.1°
Reaches altitude 10° 22:46:49 10° 330° (NNW) 2,444 5.3 -8.6°
Maximum altitude 22:52:13 51° 256° (WSW) 1,042 3.1 -9.9°
Drops below altitude 10° 22:57:35 10° 181° (S) 2,431 4.5 -11.2°
Sets 23:00:05 0° 176° (S) 3,362 5.1 -11.8°
